| time (UTC) | temp F | wind direction | speed MPH | gust MPH | rain 1hr in | rain 24hr in | rain mn in | humidity % | barometer mb |
| 20260831053016 | 53 | 248 | 1.0 | 4.0 | 0.00 | 0.53 | 0.52 | 98 | 1007.3 |
| 20260831052016 | 54 | 248 | 1.0 | 4.0 | 0.00 | 0.53 | 0.52 | 98 | 1007.0 |
| 20260831051016 | 53 | 0.0 | 2.0 | 0.00 | 0.53 | 0.52 | 98 | 1007.0 | |
| 20260831050016 | 54 | 270 | 1.0 | 2.0 | 0.00 | 0.53 | 0.52 | 98 | 1006.8 |
| 20260831045036 | 54 | 270 | 2.0 | 4.0 | 0.00 | 0.53 | 0.52 | 98 | 1006.7 |
| 20260831044016 | 54 | 248 | 1.0 | 5.0 | 0.00 | 0.53 | 0.52 | 98 | 1006.7 |
| 20260831043016 | 54 | 248 | 2.0 | 4.0 | 0.00 | 0.53 | 0.52 | 98 | 1006.6 |
| 20260831042016 | 54 | 225 | 2.0 | 6.0 | 0.00 | 0.53 | 0.52 | 98 | 1006.5 |
| 20260831041016 | 54 | 248 | 2.0 | 8.0 | 0.00 | 0.53 | 0.52 | 98 | 1006.4 |
| 20260831040016 | 54 | 225 | 3.0 | 7.0 | 0.00 | 0.53 | 0.52 | 98 | 1006.2 |
| 20260831035016 | 55 | 225 | 3.0 | 8.0 | 0.00 | 0.53 | 0.52 | 98 | 1006.2 |
| 20260831034016 | 55 | 225 | 2.0 | 6.0 | 0.00 | 0.53 | 0.52 | 98 | 1006.2 |
| 20260831033016 | 55 | 225 | 3.0 | 8.0 | 0.00 | 0.53 | 0.52 | 98 | 1006.1 |
| 20260831032016 | 55 | 225 | 3.0 | 7.0 | 0.00 | 0.53 | 0.52 | 98 | 1006.2 |
| 20260831031016 | 55 | 225 | 2.0 | 6.0 | 0.00 | 0.53 | 0.52 | 98 | 1006.1 |
| 20260831030016 | 55 | 225 | 2.0 | 5.0 | 0.00 | 0.54 | 0.52 | 98 | 1006.0 |
| 20260831025016 | 55 | 203 | 5.0 | 10.0 | 0.01 | 0.54 | 0.52 | 98 | 1005.8 |
| 20260831024036 | 55 | 203 | 5.0 | 8.0 | 0.02 | 0.54 | 0.52 | 98 | 1005.7 |
| 20260831023016 | 55 | 203 | 4.0 | 6.0 | 0.04 | 0.54 | 0.52 | 98 | 1005.7 |
| 20260831022016 | 55 | 225 | 2.0 | 6.0 | 0.09 | 0.54 | 0.52 | 98 | 1005.5 |
| 20260831021016 | 55 | 225 | 3.0 | 6.0 | 0.16 | 0.54 | 0.52 | 98 | 1005.6 |
| 20260831020016 | 55 | 203 | 3.0 | 5.0 | 0.26 | 0.54 | 0.52 | 98 | 1005.5 |
| 20260831015036 | 56 | 225 | 1.0 | 4.0 | 0.37 | 0.54 | 0.51 | 98 | 1005.5 |
| 20260831014036 | 56 | 225 | 1.0 | 3.0 | 0.47 | 0.53 | 0.50 | 98 | 1005.6 |
| 20260831013056 | 55 | 270 | 2.0 | 3.0 | 0.48 | 0.50 | 0.48 | 98 | 1005.5 |
| 20260831012036 | 55 | 23 | 3.0 | 5.0 | 0.43 | 0.46 | 0.43 | 97 | 1004.9 |
| 20260831011035 | 55 | 23 | 3.0 | 6.0 | 0.36 | 0.39 | 0.36 | 97 | 1005.1 |
| 20260831010016 | 55 | 293 | 3.0 | 6.0 | 0.26 | 0.28 | 0.26 | 96 | 1005.4 |
| 20260831005016 | 57 | 293 | 8.0 | 15.0 | 0.14 | 0.17 | 0.14 | 96 | 1005.6 |
| 20260831004016 | 59 | 225 | 5.0 | 12.0 | 0.03 | 0.06 | 0.03 | 94 | 1005.5 |
| 20260831003015 | 59 | 0.0 | 3.0 | 0.00 | 0.02 | 0.00 | 92 | 1005.2 | |
| 20260831002016 | 60 | 203 | 3.0 | 9.0 | 0.00 | 0.02 | 0.00 | 91 | 1005.2 |
| 20260831001015 | 59 | 180 | 2.0 | 6.0 | 0.00 | 0.02 | 0.00 | 91 | 1005.1 |
| 20260831000015 | 59 | 180 | 3.0 | 8.0 | 0.00 | 0.02 | 0.00 | 91 | 1005.1 |
| 20260830235016 | 59 | 158 | 2.0 | 4.0 | 0.00 | 0.02 | 0.00 | 92 | 1005.3 |
| 20260830234016 | 59 | 180 | 3.0 | 7.0 | 0.00 | 0.02 | 0.00 | 92 | 1005.4 |
| 20260830233015 | 59 | 203 | 5.0 | 9.0 | 0.00 | 0.02 | 0.00 | 92 | 1005.4 |
| 20260830232015 | 59 | 203 | 4.0 | 9.0 | 0.00 | 0.02 | 0.00 | 92 | 1005.6 |
| 20260830231015 | 59 | 225 | 2.0 | 4.0 | 0.00 | 0.02 | 0.00 | 92 | 1005.6 |
| 20260830230015 | 59 | 225 | 3.0 | 9.0 | 0.00 | 0.05 | 0.02 | 91 | 1005.9 |
| 20260830225016 | 60 | 203 | 5.0 | 14.0 | 0.00 | 0.05 | 0.02 | 91 | 1005.8 |
| 20260830224016 | 60 | 225 | 6.0 | 10.0 | 0.00 | 0.05 | 0.02 | 89 | 1005.8 |
| 20260830223055 | 61 | 203 | 10.0 | 17.0 | 0.00 | 0.05 | 0.02 | 88 | 1005.8 |
| 20260830222016 | 61 | 203 | 9.0 | 17.0 | 0.00 | 0.05 | 0.02 | 87 | 1005.7 |
| 20260830221015 | 61 | 203 | 10.0 | 21.0 | 0.00 | 0.05 | 0.02 | 85 | 1005.8 |
| 20260830220016 | 62 | 225 | 10.0 | 20.0 | 0.00 | 0.06 | 0.02 | 84 | 1005.8 |
| 20260830215015 | 63 | 203 | 11.0 | 25.0 | 0.00 | 0.06 | 0.02 | 84 | 1005.6 |
| 20260830214015 | 63 | 203 | 8.0 | 30.0 | 0.00 | 0.06 | 0.02 | 84 | 1005.4 |
| 20260830213035 | 63 | 158 | 6.0 | 17.0 | 0.00 | 0.06 | 0.02 | 84 | 1005.3 |
| 20260830212015 | 63 | 158 | 4.0 | 8.0 | 0.00 | 0.06 | 0.02 | 85 | 1005.4 |
| 20260830211015 | 63 | 158 | 4.0 | 14.0 | 0.00 | 0.06 | 0.02 | 85 | 1005.5 |
| 20260830210015 | 63 | 158 | 2.0 | 9.0 | 0.01 | 0.06 | 0.02 | 86 | 1005.5 |
| 20260830205015 | 61 | 158 | 1.0 | 5.0 | 0.01 | 0.06 | 0.02 | 93 | 1005.6 |
| 20260830204015 | 61 | 0.0 | 0.0 | 0.01 | 0.06 | 0.02 | 94 | 1005.8 | |
| 20260830203015 | 61 | 0.0 | 1.0 | 0.01 | 0.06 | 0.02 | 94 | 1005.9 | |
| 20260830202015 | 61 | 270 | 1.0 | 3.0 | 0.01 | 0.06 | 0.02 | 93 | 1006.1 |
| 20260830201015 | 62 | 270 | 2.0 | 9.0 | 0.01 | 0.06 | 0.02 | 91 | 1006.3 |
| 20260830200035 | 63 | 203 | 5.0 | 13.0 | 0.00 | 0.06 | 0.02 | 84 | 1006.1 |
| 20260830195017 | 63 | 180 | 3.0 | 11.0 | 0.00 | 0.06 | 0.02 | 85 | 1006.2 |
| 20260830194017 | 62 | 0.0 | 0.0 | 0.00 | 0.06 | 0.02 | 91 | 1006.3 | |
| 20260830193017 | 61 | 0.0 | 2.0 | 0.00 | 0.06 | 0.02 | 90 | 1006.2 | |
| 20260830192018 | 61 | 0.0 | 1.0 | 0.00 | 0.06 | 0.02 | 90 | 1006.3 | |
| 20260830191037 | 61 | 0.0 | 0.0 | 0.00 | 0.06 | 0.02 | 89 | 1006.3 | |
| 20260830190017 | 62 | 0.0 | 1.0 | 0.00 | 0.06 | 0.02 | 89 | 1006.4 | |
| 20260830185017 | 62 | 0.0 | 2.0 | 0.00 | 0.06 | 0.02 | 89 | 1006.7 | |
| 20260830184017 | 62 | 315 | 1.0 | 4.0 | 0.00 | 0.06 | 0.02 | 88 | 1006.7 |
| 20260830183017 | 63 | 270 | 3.0 | 8.0 | 0.00 | 0.06 | 0.02 | 87 | 1006.8 |
| 20260830182037 | 63 | 270 | 3.0 | 8.0 | 0.00 | 0.06 | 0.02 | 87 | 1007.0 |
| 20260830181017 | 64 | 270 | 3.0 | 7.0 | 0.00 | 0.06 | 0.02 | 88 | 1006.9 |
| 20260830180017 | 65 | 270 | 3.0 | 4.0 | 0.00 | 0.06 | 0.02 | 86 | 1006.9 |
| 20260830175017 | 65 | 270 | 2.0 | 4.0 | 0.00 | 0.06 | 0.02 | 85 | 1006.9 |
| 20260830174017 | 65 | 248 | 2.0 | 4.0 | 0.00 | 0.06 | 0.02 | 85 | 1007.0 |
| 20260830173017 | 65 | 270 | 2.0 | 7.0 | 0.00 | 0.06 | 0.02 | 86 | 1006.9 |
| 20260830172017 | 66 | 270 | 6.0 | 20.0 | 0.00 | 0.06 | 0.02 | 81 | 1006.9 |
| 20260830171017 | 68 | 203 | 7.0 | 16.0 | 0.00 | 0.06 | 0.02 | 71 | 1006.7 |
| 20260830170017 | 69 | 203 | 9.0 | 16.0 | 0.00 | 0.06 | 0.02 | 71 | 1006.7 |
| 20260830165037 | 69 | 203 | 7.0 | 15.0 | 0.00 | 0.06 | 0.02 | 71 | 1006.9 |
| 20260830164017 | 69 | 203 | 5.0 | 11.0 | 0.00 | 0.06 | 0.02 | 74 | 1006.8 |
| 20260830163022 | 69 | 203 | 5.0 | 12.0 | 0.00 | 0.06 | 0.02 | 74 | 1006.9 |
| 20260830162017 | 69 | 203 | 7.0 | 21.0 | 0.00 | 0.06 | 0.02 | 73 | 1006.9 |
| 20260830161017 | 70 | 203 | 6.0 | 14.0 | 0.00 | 0.06 | 0.02 | 72 | 1007.2 |
| 20260830160017 | 70 | 203 | 8.0 | 15.0 | 0.00 | 0.06 | 0.02 | 71 | 1007.2 |
| 20260830155017 | 70 | 225 | 6.0 | 14.0 | 0.00 | 0.06 | 0.02 | 72 | 1007.1 |
| 20260830154057 | 70 | 203 | 12.0 | 24.0 | 0.00 | 0.06 | 0.02 | 70 | 1007.1 |
| 20260830153017 | 70 | 203 | 8.0 | 13.0 | 0.00 | 0.06 | 0.02 | 70 | 1007.1 |
| 20260830152037 | 71 | 180 | 5.0 | 13.0 | 0.00 | 0.06 | 0.02 | 69 | 1007.1 |
| 20260830151036 | 71 | 203 | 8.0 | 19.0 | 0.00 | 0.06 | 0.02 | 68 | 1007.1 |
| 20260830150016 | 71 | 203 | 7.0 | 14.0 | 0.00 | 0.12 | 0.02 | 69 | 1007.3 |
| 20260830145016 | 71 | 203 | 6.0 | 13.0 | 0.00 | 0.12 | 0.02 | 70 | 1007.7 |
| 20260830144016 | 71 | 203 | 5.0 | 13.0 | 0.00 | 0.12 | 0.02 | 72 | 1007.9 |
| 20260830143016 | 70 | 180 | 6.0 | 13.0 | 0.00 | 0.12 | 0.02 | 72 | 1008.2 |
| 20260830142016 | 70 | 203 | 8.0 | 18.0 | 0.00 | 0.12 | 0.02 | 72 | 1008.2 |
| 20260830141017 | 71 | 180 | 7.0 | 20.0 | 0.00 | 0.12 | 0.02 | 72 | 1008.2 |
| 20260830140037 | 71 | 180 | 5.0 | 13.0 | 0.00 | 0.14 | 0.02 | 72 | 1008.3 |
| 20260830135016 | 72 | 180 | 7.0 | 17.0 | 0.00 | 0.14 | 0.02 | 69 | 1008.4 |
| 20260830134017 | 73 | 203 | 9.0 | 21.0 | 0.00 | 0.14 | 0.02 | 67 | 1008.4 |
| 20260830133016 | 72 | 180 | 6.0 | 14.0 | 0.00 | 0.14 | 0.02 | 66 | 1008.5 |
| 20260830132016 | 74 | 203 | 9.0 | 22.0 | 0.00 | 0.14 | 0.02 | 66 | 1008.5 |
| 20260830131016 | 74 | 203 | 12.0 | 25.0 | 0.00 | 0.14 | 0.02 | 63 | 1008.7 |
| 20260830130016 | 74 | 203 | 9.0 | 20.0 | 0.00 | 0.14 | 0.02 | 62 | 1008.7 |
| 20260830125016 | 74 | 203 | 8.0 | 17.0 | 0.00 | 0.14 | 0.02 | 62 | 1008.9 |
| 20260830124016 | 74 | 203 | 10.0 | 19.0 | 0.00 | 0.14 | 0.02 | 62 | 1008.9 |
| 20260830123016 | 73 | 203 | 9.0 | 25.0 | 0.00 | 0.14 | 0.02 | 64 | 1008.9 |
| 20260830122016 | 73 | 203 | 7.0 | 15.0 | 0.00 | 0.14 | 0.02 | 67 | 1009.0 |
| 20260830121016 | 72 | 203 | 8.0 | 18.0 | 0.00 | 0.14 | 0.02 | 69 | 1009.1 |
| 20260830120016 | 72 | 203 | 7.0 | 14.0 | 0.00 | 0.17 | 0.02 | 69 | 1009.2 |
| 20260830115016 | 71 | 203 | 9.0 | 15.0 | 0.00 | 0.17 | 0.02 | 70 | 1009.3 |
| 20260830114016 | 72 | 203 | 6.0 | 14.0 | 0.00 | 0.17 | 0.02 | 72 | 1009.4 |
| 20260830113016 | 71 | 203 | 7.0 | 22.0 | 0.00 | 0.17 | 0.02 | 74 | 1009.4 |
| 20260830112016 | 70 | 225 | 6.0 | 13.0 | 0.00 | 0.17 | 0.02 | 76 | 1009.7 |
| 20260830111016 | 70 | 203 | 6.0 | 15.0 | 0.00 | 0.17 | 0.02 | 76 | 1009.8 |
| 20260830110036 | 70 | 203 | 5.0 | 13.0 | 0.00 | 0.20 | 0.02 | 77 | 1009.9 |
| 20260830105016 | 69 | 225 | 5.0 | 9.0 | 0.00 | 0.20 | 0.02 | 76 | 1010.1 |
| 20260830104016 | 69 | 225 | 8.0 | 20.0 | 0.00 | 0.20 | 0.02 | 76 | 1010.0 |
| 20260830103016 | 69 | 225 | 5.0 | 13.0 | 0.00 | 0.20 | 0.02 | 78 | 1010.1 |
| 20260830102016 | 69 | 203 | 7.0 | 19.0 | 0.00 | 0.20 | 0.02 | 77 | 1010.1 |
| 20260830101016 | 68 | 203 | 8.0 | 18.0 | 0.00 | 0.20 | 0.02 | 78 | 1010.2 |
| 20260830100036 | 70 | 203 | 7.0 | 13.0 | 0.00 | 0.20 | 0.02 | 78 | 1010.4 |
| 20260830095016 | 69 | 203 | 7.0 | 15.0 | 0.00 | 0.20 | 0.02 | 78 | 1010.3 |
| 20260830094016 | 68 | 203 | 7.0 | 18.0 | 0.00 | 0.20 | 0.02 | 80 | 1010.3 |
| 20260830093016 | 68 | 203 | 7.0 | 17.0 | 0.00 | 0.20 | 0.02 | 80 | 1010.4 |
| 20260830092016 | 69 | 225 | 5.0 | 13.0 | 0.00 | 0.20 | 0.02 | 80 | 1010.3 |
| 20260830091016 | 68 | 203 | 6.0 | 14.0 | 0.00 | 0.20 | 0.02 | 81 | 1010.4 |
| 20260830090016 | 68 | 225 | 3.0 | 9.0 | 0.00 | 0.25 | 0.02 | 84 | 1010.4 |
| 20260830085016 | 67 | 225 | 4.0 | 10.0 | 0.00 | 0.25 | 0.02 | 87 | 1010.4 |
| 20260830084016 | 66 | 180 | 1.0 | 6.0 | 0.00 | 0.25 | 0.02 | 87 | 1010.4 |
| 20260830083015 | 65 | 225 | 4.0 | 9.0 | 0.00 | 0.25 | 0.02 | 88 | 1010.4 |
| 20260830082016 | 63 | 203 | 4.0 | 8.0 | 0.00 | 0.25 | 0.02 | 92 | 1010.3 |
| 20260830081016 | 63 | 203 | 3.0 | 6.0 | 0.00 | 0.25 | 0.02 | 93 | 1010.3 |
| 20260830080016 | 62 | 203 | 4.0 | 10.0 | 0.00 | 0.25 | 0.02 | 94 | 1010.2 |
| 20260830075035 | 62 | 203 | 2.0 | 6.0 | 0.00 | 0.25 | 0.02 | 95 | 1010.2 |
| 20260830074016 | 61 | 203 | 4.0 | 13.0 | 0.00 | 0.25 | 0.02 | 96 | 1010.2 |
| 20260830073015 | 61 | 203 | 5.0 | 10.0 | 0.00 | 0.25 | 0.02 | 96 | 1010.2 |
| 20260830072015 | 61 | 203 | 6.0 | 10.0 | 0.00 | 0.25 | 0.02 | 97 | 1010.2 |
| 20260830071035 | 60 | 203 | 5.0 | 9.0 | 0.00 | 0.25 | 0.02 | 98 | 1010.0 |
| 20260830070016 | 60 | 225 | 3.0 | 6.0 | 0.00 | 0.25 | 0.02 | 99 | 1010.0 |
| 20260830065016 | 60 | 225 | 4.0 | 9.0 | 0.00 | 0.25 | 0.02 | 99 | 1010.0 |
| 20260830064036 | 60 | 203 | 4.0 | 10.0 | 0.00 | 0.25 | 0.02 | 99 | 1009.9 |
| 20260830063016 | 60 | 203 | 5.0 | 11.0 | 0.00 | 0.25 | 0.02 | 99 | 1009.8 |
| 20260830062015 | 60 | 203 | 4.0 | 8.0 | 0.00 | 0.25 | 0.02 | 100 | 1009.8 |
| 20260830061015 | 60 | 203 | 4.0 | 7.0 | 0.00 | 0.25 | 0.02 | 100 | 1009.8 |
| 20260830060015 | 60 | 203 | 3.0 | 5.0 | 0.00 | 0.25 | 0.02 | 100 | 1009.7 |
| 20260830055015 | 60 | 203 | 4.0 | 7.0 | 0.00 | 0.25 | 0.02 | 100 | 1009.7 |
| 20260830054015 | 60 | 203 | 4.0 | 7.0 | 0.00 | 0.25 | 0.02 | 100 | 1009.6 |